GFSNGP_prec_pwat_312.txt.gz
Precipitable_Water
0.15 0.15 0.20 0.21 0.24 0.25 0.27 0.33 0.26 0.28 0.35 0.48 0.49 0.51 0.53 0.53 0.52 0.53 0.58 0.65 0.73 0.80 0.89 1.02 1.08 1.09 1.13 1.11 1.05 1.01 0.87 0.91 0.98 1.21 1.41 1.37 1.35 1.37 1.46 1.54 1.52 1.50 1.51 1.45
0.11 0.13 0.15 0.15 0.21 0.30 0.32 0.34 0.35 0.32 0.40 0.53 0.52 0.55 0.53 0.54 0.52 0.50 0.50 0.54 0.62 0.71 0.76 0.85 0.97 1.01 1.07 1.10 1.06 1.13 1.16 1.12 1.20 1.27 1.26 1.16 1.13 1.28 1.32 1.31 1.35 1.42 1.42 1.28
0.07 0.12 0.13 0.10 0.17 0.23 0.29 0.33 0.36 0.31 0.40 0.49 0.48 0.46 0.46 0.50 0.51 0.50 0.52 0.53 0.54 0.58 0.67 0.79 0.86 0.89 0.87 0.94 1.02 1.06 1.08 1.07 1.11 1.11 1.09 1.14 1.19 1.26 1.25 1.29 1.33 1.24 1.20 1.18
0.10 0.11 0.07 0.15 0.21 0.25 0.25 0.29 0.33 0.39 0.42 0.46 0.47 0.48 0.44 0.46 0.48 0.48 0.51 0.53 0.53 0.57 0.62 0.68 0.80 0.88 0.90 0.89 0.91 0.96 0.95 0.99 1.02 1.04 1.03 1.10 1.16 1.19 1.23 1.23 1.25 1.25 1.24 1.26
0.11 0.09 0.11 0.16 0.23 0.24 0.23 0.22 0.35 0.34 0.39 0.44 0.48 0.45 0.41 0.43 0.44 0.45 0.48 0.52 0.54 0.54 0.60 0.65 0.68 0.70 0.71 0.68 0.73 0.77 0.80 0.82 0.89 0.96 0.96 1.00 1.02 1.05 1.11 1.13 1.13 1.13 1.15 1.16
0.14 0.10 0.07 0.15 0.21 0.25 0.24 0.18 0.33 0.38 0.39 0.38 0.43 0.32 0.38 0.46 0.43 0.45 0.45 0.46 0.48 0.52 0.53 0.56 0.55 0.62 0.60 0.53 0.58 0.65 0.69 0.72 0.76 0.82 0.90 0.91 0.94 0.97 1.00 1.02 1.01 1.05 1.04 1.06
0.12 0.12 0.15 0.19 0.21 0.24 0.15 0.18 0.32 0.37 0.41 0.42 0.38 0.43 0.47 0.49 0.44 0.46 0.47 0.44 0.43 0.42 0.45 0.47 0.48 0.46 0.47 0.52 0.48 0.60 0.70 0.71 0.69 0.68 0.72 0.79 0.82 0.84 0.86 0.87 0.90 0.92 0.95 1.01
0.13 0.12 0.11 0.21 0.22 0.17 0.22 0.27 0.31 0.36 0.38 0.40 0.42 0.44 0.46 0.47 0.45 0.49 0.47 0.45 0.44 0.39 0.38 0.40 0.40 0.39 0.37 0.35 0.41 0.46 0.57 0.63 0.64 0.65 0.67 0.67 0.71 0.75 0.77 0.77 0.77 0.78 0.82 0.86
0.15 0.14 0.19 0.24 0.22 0.25 0.25 0.22 0.24 0.29 0.37 0.37 0.39 0.41 0.42 0.42 0.44 0.44 0.49 0.50 0.45 0.42 0.37 0.37 0.37 0.36 0.35 0.35 0.35 0.33 0.37 0.48 0.57 0.61 0.59 0.59 0.56 0.61 0.68 0.73 0.72 0.72 0.71 0.74
0.13 0.15 0.16 0.19 0.20 0.21 0.20 0.21 0.23 0.25 0.31 0.34 0.30 0.36 0.37 0.38 0.38 0.38 0.38 0.40 0.42 0.44 0.42 0.39 0.36 0.36 0.34 0.34 0.34 0.34 0.32 0.35 0.43 0.48 0.52 0.53 0.55 0.51 0.49 0.51 0.60 0.67 0.68 0.69
0.13 0.13 0.16 0.18 0.18 0.17 0.17 0.20 0.19 0.20 0.21 0.25 0.29 0.30 0.33 0.35 0.33 0.30 0.29 0.31 0.32 0.34 0.36 0.36 0.40 0.38 0.36 0.36 0.35 0.33 0.32 0.33 0.35 0.42 0.43 0.43 0.46 0.48 0.50 0.53 0.51 0.47 0.55 0.64
0.11 0.15 0.15 0.14 0.15 0.15 0.15 0.14 0.15 0.15 0.16 0.19 0.22 0.27 0.28 0.31 0.33 0.30 0.27 0.26 0.27 0.28 0.30 0.31 0.33 0.34 0.36 0.37 0.36 0.35 0.35 0.33 0.33 0.35 0.36 0.39 0.38 0.38 0.48 0.50 0.48 0.55 0.53 0.54
0.15 0.17 0.16 0.16 0.17 0.17 0.16 0.16 0.18 0.17 0.15 0.15 0.18 0.20 0.24 0.26 0.31 0.31 0.27 0.24 0.23 0.24 0.25 0.27 0.28 0.29 0.31 0.33 0.35 0.35 0.34 0.36 0.35 0.33 0.33 0.34 0.35 0.37 0.36 0.42 0.47 0.48 0.49 0.49
0.19 0.18 0.15 0.17 0.15 0.18 0.18 0.17 0.18 0.18 0.19 0.18 0.19 0.21 0.22 0.21 0.25 0.31 0.28 0.23 0.22 0.22 0.22 0.22 0.24 0.26 0.27 0.29 0.29 0.30 0.31 0.33 0.34 0.34 0.33 0.33 0.33 0.33 0.36 0.35 0.35 0.38 0.44 0.45
0.15 0.15 0.15 0.18 0.17 0.15 0.16 0.15 0.14 0.13 0.15 0.16 0.19 0.20 0.21 0.21 0.20 0.23 0.28 0.25 0.22 0.21 0.21 0.21 0.20 0.22 0.26 0.27 0.28 0.29 0.29 0.29 0.31 0.32 0.33 0.34 0.33 0.33 0.36 0.37 0.39 0.42 0.41 0.42
0.13 0.13 0.12 0.11 0.11 0.11 0.11 0.12 0.12 0.13 0.14 0.15 0.16 0.17 0.19 0.21 0.22 0.22 0.23 0.25 0.23 0.21 0.21 0.20 0.21 0.22 0.23 0.24 0.25 0.27 0.27 0.28 0.29 0.29 0.29 0.29 0.30 0.30 0.31 0.32 0.35 0.37 0.37 0.35
0.13 0.12 0.13 0.13 0.13 0.14 0.13 0.13 0.13 0.13 0.13 0.12 0.12 0.16 0.19 0.19 0.21 0.19 0.19 0.22 0.25 0.24 0.24 0.21 0.21 0.23 0.24 0.24 0.23 0.23 0.25 0.26 0.27 0.27 0.27 0.27 0.27 0.27 0.27 0.28 0.30 0.33 0.34 0.36
0.17 0.17 0.17 0.17 0.16 0.15 0.15 0.15 0.15 0.14 0.14 0.14 0.14 0.13 0.13 0.13 0.16 0.18 0.19 0.18 0.20 0.22 0.25 0.25 0.24 0.23 0.24 0.24 0.23 0.24 0.24 0.25 0.26 0.26 0.27 0.27 0.27 0.27 0.27 0.27 0.27 0.27 0.29 0.31
0.20 0.19 0.19 0.19 0.19 0.20 0.19 0.18 0.18 0.18 0.17 0.16 0.16 0.15 0.15 0.15 0.15 0.15 0.16 0.17 0.16 0.17 0.20 0.25 0.26 0.25 0.23 0.24 0.25 0.25 0.24 0.24 0.25 0.26 0.27 0.27 0.26 0.27 0.27 0.28 0.28 0.29 0.30 0.30
0.20 0.21 0.22 0.22 0.23 0.23 0.22 0.22 0.22 0.21 0.21 0.21 0.20 0.19 0.16 0.15 0.15 0.14 0.14 0.15 0.17 0.17 0.21 0.25 0.25 0.26 0.26 0.26 0.28 0.29 0.28 0.26 0.27 0.26 0.26 0.27 0.27 0.27 0.28 0.28 0.27 0.26 0.26 0.25
0.23 0.25 0.25 0.24 0.24 0.25 0.25 0.25 0.23 0.21 0.22 0.23 0.22 0.20 0.19 0.18 0.18 0.17 0.16 0.14 0.17 0.18 0.19 0.26 0.28 0.28 0.29 0.29 0.29 0.29 0.31 0.30 0.28 0.27 0.28 0.28 0.27 0.26 0.26 0.25 0.24 0.23 0.21 0.19
0.21 0.23 0.24 0.24 0.24 0.24 0.25 0.26 0.26 0.24 0.22 0.22 0.23 0.24 0.23 0.22 0.21 0.20 0.19 0.17 0.18 0.19 0.20 0.22 0.26 0.28 0.27 0.27 0.27 0.27 0.27 0.29 0.29 0.29 0.27 0.26 0.24 0.22 0.20 0.19 0.16 0.14 0.14 0.16
0.22 0.24 0.25 0.25 0.25 0.25 0.26 0.26 0.26 0.27 0.25 0.22 0.21 0.22 0.23 0.23 0.22 0.19 0.17 0.18 0.19 0.21 0.20 0.19 0.19 0.19 0.21 0.23 0.24 0.24 0.23 0.22 0.20 0.19 0.18 0.16 0.15 0.15 0.15 0.15 0.15 0.16 0.17 0.18
0.22 0.24 0.25 0.26 0.26 0.26 0.24 0.26 0.27 0.27 0.28 0.27 0.23 0.23 0.22 0.21 0.21 0.22 0.21 0.18 0.18 0.20 0.20 0.19 0.19 0.19 0.18 0.19 0.18 0.17 0.17 0.18 0.19 0.19 0.18 0.18 0.18 0.17 0.17 0.17 0.17 0.17 0.18 0.19
0.22 0.24 0.25 0.25 0.24 0.25 0.26 0.27 0.27 0.27 0.28 0.28 0.27 0.25 0.22 0.23 0.23 0.22 0.24 0.22 0.21 0.21 0.21 0.21 0.20 0.19 0.18 0.18 0.18 0.18 0.18 0.18 0.18 0.18 0.18 0.18 0.18 0.18 0.18 0.18 0.19 0.20 0.21 0.23
0.23 0.24 0.25 0.26 0.26 0.26 0.27 0.27 0.26 0.27 0.27 0.26 0.28 0.29 0.27 0.26 0.24 0.23 0.23 0.23 0.23 0.23 0.22 0.22 0.21 0.21 0.19 0.18 0.19 0.20 0.20 0.20 0.19 0.20 0.20 0.20 0.20 0.21 0.20 0.21 0.21 0.23 0.25 0.26
0.24 0.25 0.25 0.25 0.27 0.27 0.27 0.27 0.26 0.26 0.28 0.28 0.27 0.29 0.30 0.30 0.29 0.27 0.27 0.26 0.25 0.24 0.23 0.23 0.22 0.22 0.22 0.23 0.22 0.21 0.21 0.21 0.21 0.21 0.21 0.21 0.21 0.21 0.22 0.25 0.27 0.29 0.32 0.34

GFSNGP_prec_pwat_315.txt.gz
Precipitable_Water
0.12 0.12 0.15 0.15 0.19 0.26 0.29 0.30 0.27 0.31 0.32 0.38 0.44 0.45 0.50 0.54 0.58 0.61 0.63 0.66 0.71 0.79 0.90 0.98 1.05 1.09 1.18 1.27 1.32 1.35 1.32 1.31 1.33 1.44 1.40 1.38 1.43 1.31 1.41 1.42 1.41 1.47 1.46 1.38
0.09 0.12 0.12 0.12 0.20 0.22 0.30 0.31 0.32 0.34 0.33 0.44 0.47 0.44 0.45 0.49 0.54 0.54 0.55 0.66 0.71 0.79 0.84 0.91 1.01 1.11 1.21 1.26 1.27 1.37 1.26 1.19 1.20 1.16 1.17 1.19 1.12 1.13 1.25 1.34 1.31 1.32 1.40 1.34
0.08 0.12 0.10 0.11 0.18 0.23 0.27 0.31 0.31 0.26 0.33 0.43 0.42 0.44 0.44 0.44 0.47 0.53 0.56 0.59 0.62 0.73 0.82 0.90 0.98 1.06 1.12 1.17 1.26 1.27 1.22 1.23 1.14 1.08 1.07 1.09 1.13 1.22 1.14 1.07 1.21 1.29 1.27 1.37
0.09 0.11 0.05 0.14 0.22 0.28 0.28 0.29 0.32 0.33 0.37 0.40 0.42 0.45 0.45 0.48 0.46 0.47 0.50 0.59 0.63 0.66 0.73 0.83 0.92 1.00 1.11 1.11 1.12 1.14 1.12 1.13 1.13 1.06 1.05 1.11 1.12 1.08 1.02 1.14 1.19 1.22 1.28 1.29
0.09 0.11 0.12 0.14 0.20 0.21 0.22 0.24 0.31 0.32 0.35 0.40 0.43 0.44 0.41 0.46 0.46 0.45 0.45 0.48 0.59 0.61 0.67 0.72 0.76 0.89 0.95 1.00 0.99 0.96 0.99 0.99 1.03 1.10 1.03 1.07 1.02 1.01 1.09 1.20 1.20 1.19 1.22 1.24
0.11 0.09 0.09 0.14 0.19 0.25 0.27 0.19 0.29 0.32 0.32 0.35 0.39 0.31 0.37 0.46 0.45 0.45 0.48 0.48 0.48 0.59 0.57 0.53 0.64 0.70 0.74 0.81 0.86 0.88 0.87 0.94 1.01 0.96 0.96 0.95 1.01 1.06 1.06 1.09 1.09 1.17 1.16 1.20
0.12 0.10 0.13 0.20 0.20 0.24 0.15 0.16 0.26 0.30 0.30 0.32 0.32 0.36 0.43 0.48 0.46 0.47 0.48 0.45 0.46 0.47 0.51 0.52 0.49 0.55 0.59 0.66 0.70 0.83 0.86 0.86 0.85 0.87 0.90 0.92 0.94 0.98 1.01 1.02 1.02 1.01 1.01 1.06
0.11 0.11 0.10 0.21 0.20 0.17 0.20 0.24 0.26 0.28 0.29 0.28 0.34 0.38 0.42 0.45 0.48 0.47 0.47 0.46 0.46 0.44 0.45 0.46 0.47 0.45 0.45 0.47 0.55 0.68 0.79 0.77 0.77 0.77 0.79 0.85 0.86 0.87 0.90 0.90 0.91 0.92 0.93 0.95
0.13 0.11 0.18 0.20 0.20 0.23 0.23 0.22 0.23 0.25 0.27 0.26 0.27 0.33 0.38 0.41 0.43 0.47 0.48 0.48 0.48 0.45 0.45 0.45 0.41 0.41 0.40 0.41 0.43 0.44 0.48 0.60 0.68 0.69 0.70 0.71 0.72 0.76 0.77 0.79 0.79 0.79 0.81 0.82
0.12 0.14 0.15 0.17 0.19 0.18 0.18 0.18 0.20 0.23 0.24 0.24 0.23 0.27 0.29 0.37 0.40 0.39 0.39 0.45 0.44 0.45 0.46 0.48 0.45 0.39 0.38 0.39 0.40 0.40 0.41 0.43 0.47 0.49 0.49 0.51 0.57 0.62 0.65 0.69 0.70 0.71 0.72 0.73
0.12 0.13 0.15 0.16 0.16 0.16 0.16 0.16 0.15 0.16 0.17 0.18 0.21 0.24 0.25 0.27 0.34 0.37 0.35 0.30 0.32 0.35 0.37 0.40 0.41 0.45 0.46 0.42 0.37 0.37 0.37 0.40 0.44 0.43 0.42 0.43 0.43 0.44 0.47 0.53 0.58 0.61 0.68 0.72
0.11 0.16 0.16 0.16 0.17 0.17 0.15 0.16 0.17 0.17 0.16 0.16 0.17 0.18 0.20 0.21 0.24 0.33 0.35 0.33 0.28 0.27 0.29 0.31 0.34 0.36 0.37 0.38 0.40 0.38 0.36 0.35 0.36 0.35 0.37 0.38 0.37 0.39 0.46 0.46 0.45 0.48 0.48 0.55
0.17 0.18 0.18 0.19 0.19 0.19 0.16 0.16 0.17 0.17 0.18 0.18 0.19 0.19 0.19 0.21 0.24 0.26 0.32 0.32 0.29 0.26 0.25 0.27 0.29 0.30 0.33 0.34 0.35 0.35 0.35 0.36 0.37 0.36 0.35 0.34 0.34 0.34 0.34 0.42 0.46 0.46 0.46 0.45
0.15 0.14 0.12 0.13 0.13 0.15 0.15 0.14 0.15 0.16 0.16 0.16 0.16 0.17 0.19 0.20 0.21 0.23 0.24 0.28 0.30 0.28 0.26 0.25 0.25 0.26 0.28 0.30 0.30 0.30 0.31 0.32 0.34 0.35 0.35 0.35 0.34 0.34 0.35 0.33 0.32 0.37 0.46 0.45
0.12 0.13 0.13 0.13 0.13 0.12 0.12 0.12 0.11 0.11 0.11 0.11 0.12 0.14 0.16 0.17 0.19 0.22 0.22 0.22 0.27 0.28 0.26 0.25 0.24 0.23 0.25 0.26 0.27 0.27 0.28 0.28 0.30 0.31 0.34 0.36 0.36 0.36 0.35 0.34 0.37 0.41 0.44 0.43
0.14 0.14 0.14 0.14 0.14 0.14 0.13 0.12 0.12 0.11 0.12 0.13 0.13 0.11 0.12 0.13 0.16 0.19 0.22 0.23 0.20 0.20 0.25 0.27 0.25 0.25 0.26 0.25 0.26 0.27 0.27 0.27 0.26 0.27 0.28 0.30 0.32 0.33 0.33 0.34 0.35 0.34 0.36 0.36
0.15 0.15 0.16 0.15 0.15 0.16 0.16 0.17 0.16 0.15 0.15 0.14 0.14 0.14 0.14 0.12 0.12 0.12 0.14 0.17 0.21 0.22 0.22 0.23 0.25 0.28 0.28 0.26 0.25 0.25 0.26 0.26 0.26 0.26 0.25 0.25 0.26 0.28 0.30 0.31 0.30 0.30 0.32 0.34
0.18 0.18 0.19 0.19 0.19 0.20 0.20 0.21 0.20 0.20 0.19 0.18 0.17 0.17 0.16 0.14 0.13 0.12 0.11 0.13 0.15 0.18 0.20 0.21 0.22 0.25 0.28 0.28 0.26 0.24 0.25 0.26 0.26 0.26 0.25 0.26 0.25 0.26 0.26 0.28 0.29 0.29 0.29 0.30
0.19 0.20 0.21 0.22 0.22 0.23 0.22 0.23 0.24 0.24 0.23 0.22 0.20 0.19 0.19 0.19 0.17 0.16 0.15 0.13 0.13 0.13 0.14 0.16 0.19 0.19 0.22 0.27 0.29 0.27 0.25 0.24 0.25 0.26 0.26 0.26 0.26 0.27 0.27 0.26 0.26 0.27 0.28 0.28
0.20 0.21 0.21 0.21 0.25 0.25 0.24 0.25 0.25 0.24 0.25 0.25 0.23 0.20 0.19 0.20 0.20 0.20 0.19 0.17 0.16 0.15 0.15 0.15 0.15 0.17 0.18 0.21 0.25 0.27 0.26 0.24 0.23 0.24 0.25 0.25 0.26 0.26 0.26 0.27 0.27 0.28 0.29 0.29
0.19 0.20 0.19 0.20 0.23 0.25 0.26 0.26 0.26 0.25 0.26 0.26 0.25 0.23 0.20 0.21 0.22 0.22 0.20 0.18 0.17 0.17 0.16 0.15 0.14 0.16 0.17 0.21 0.25 0.26 0.26 0.26 0.26 0.25 0.26 0.28 0.29 0.28 0.28 0.28 0.28 0.28 0.27 0.26
0.19 0.18 0.19 0.21 0.23 0.24 0.26 0.26 0.26 0.26 0.26 0.26 0.26 0.26 0.24 0.20 0.21 0.22 0.24 0.22 0.20 0.20 0.19 0.18 0.16 0.16 0.17 0.19 0.25 0.28 0.29 0.29 0.29 0.29 0.29 0.30 0.29 0.30 0.29 0.27 0.27 0.28 0.26 0.24
0.18 0.18 0.20 0.22 0.23 0.25 0.26 0.26 0.27 0.27 0.26 0.27 0.26 0.26 0.26 0.24 0.22 0.21 0.20 0.23 0.24 0.22 0.21 0.20 0.18 0.18 0.18 0.19 0.21 0.23 0.24 0.25 0.26 0.27 0.27 0.26 0.26 0.26 0.25 0.24 0.23 0.21 0.18 0.17
0.17 0.19 0.20 0.23 0.25 0.25 0.24 0.25 0.26 0.27 0.27 0.28 0.28 0.29 0.28 0.26 0.24 0.23 0.25 0.24 0.24 0.23 0.21 0.20 0.19 0.18 0.19 0.21 0.19 0.19 0.18 0.18 0.20 0.21 0.21 0.22 0.22 0.22 0.21 0.20 0.19 0.19 0.18 0.18
0.17 0.19 0.22 0.24 0.24 0.24 0.25 0.26 0.26 0.26 0.26 0.27 0.28 0.29 0.29 0.30 0.28 0.26 0.23 0.24 0.24 0.24 0.23 0.22 0.19 0.19 0.21 0.20 0.19 0.19 0.19 0.18 0.19 0.19 0.19 0.19 0.19 0.19 0.19 0.19 0.19 0.18 0.18 0.19
0.18 0.20 0.22 0.24 0.24 0.25 0.25 0.26 0.25 0.26 0.26 0.25 0.27 0.28 0.29 0.31 0.31 0.30 0.28 0.25 0.24 0.24 0.24 0.24 0.22 0.21 0.21 0.21 0.20 0.20 0.20 0.19 0.19 0.19 0.19 0.19 0.18 0.19 0.19 0.19 0.19 0.19 0.20 0.21
0.20 0.22 0.23 0.24 0.25 0.26 0.26 0.26 0.25 0.25 0.28 0.28 0.27 0.29 0.29 0.30 0.31 0.31 0.30 0.30 0.27 0.25 0.24 0.23 0.22 0.22 0.22 0.21 0.21 0.21 0.21 0.20 0.19 0.19 0.20 0.21 0.20 0.21 0.22 0.22 0.22 0.22 0.22 0.22

GFSNGP_prec_pwat_321.txt.gz
Precipitable_Water
0.14 0.14 0.12 0.13 0.18 0.19 0.20 0.22 0.18 0.20 0.22 0.28 0.33 0.39 0.43 0.46 0.51 0.56 0.56 0.59 0.62 0.67 0.76 0.78 0.85 0.89 0.95 0.98 1.00 1.04 1.07 1.09 1.15 1.27 1.37 1.42 1.41 1.41 1.43 1.45 1.47 1.49 1.45 1.39
0.11 0.11 0.12 0.14 0.18 0.19 0.20 0.21 0.21 0.22 0.22 0.32 0.37 0.41 0.42 0.45 0.50 0.51 0.56 0.58 0.61 0.66 0.71 0.78 0.83 0.87 0.93 0.95 1.00 1.05 1.07 1.09 1.16 1.24 1.33 1.38 1.42 1.41 1.43 1.43 1.43 1.45 1.41 1.41
0.09 0.10 0.12 0.12 0.16 0.18 0.19 0.22 0.21 0.18 0.23 0.31 0.31 0.35 0.37 0.43 0.48 0.50 0.54 0.58 0.59 0.62 0.67 0.72 0.80 0.87 0.88 0.92 0.98 0.99 1.03 1.08 1.12 1.18 1.28 1.37 1.40 1.39 1.38 1.39 1.42 1.42 1.48 1.42
0.09 0.11 0.08 0.16 0.19 0.21 0.19 0.21 0.24 0.24 0.26 0.29 0.32 0.36 0.39 0.44 0.46 0.49 0.53 0.56 0.59 0.63 0.65 0.68 0.78 0.84 0.88 0.92 0.94 0.96 0.98 0.99 1.08 1.18 1.23 1.29 1.34 1.33 1.35 1.40 1.39 1.38 1.37 1.34
0.09 0.09 0.12 0.13 0.16 0.18 0.18 0.16 0.23 0.23 0.26 0.28 0.32 0.32 0.33 0.42 0.46 0.48 0.52 0.57 0.58 0.58 0.63 0.67 0.73 0.83 0.84 0.86 0.89 0.93 0.95 1.00 1.06 1.12 1.18 1.23 1.24 1.28 1.30 1.32 1.32 1.31 1.19 1.12
0.11 0.08 0.07 0.12 0.17 0.24 0.23 0.13 0.20 0.21 0.22 0.25 0.27 0.23 0.28 0.39 0.43 0.46 0.50 0.55 0.56 0.59 0.58 0.62 0.64 0.71 0.80 0.82 0.83 0.87 0.93 1.00 1.06 1.08 1.07 1.11 1.18 1.21 1.20 1.20 1.23 1.22 1.14 1.09
0.08 0.09 0.11 0.16 0.17 0.18 0.10 0.12 0.19 0.19 0.20 0.22 0.22 0.26 0.31 0.37 0.40 0.45 0.48 0.48 0.53 0.55 0.56 0.56 0.59 0.59 0.62 0.69 0.71 0.80 0.87 0.93 1.00 1.05 1.04 1.06 1.13 1.21 1.20 1.15 1.17 1.15 1.08 1.06
0.09 0.08 0.07 0.20 0.16 0.12 0.17 0.18 0.19 0.19 0.20 0.20 0.23 0.25 0.27 0.30 0.34 0.39 0.44 0.44 0.42 0.49 0.50 0.54 0.55 0.55 0.51 0.55 0.66 0.65 0.72 0.79 0.85 0.93 0.98 0.98 1.02 1.09 1.08 1.08 1.08 1.04 0.99 0.99
0.12 0.11 0.18 0.19 0.18 0.18 0.18 0.16 0.17 0.18 0.19 0.19 0.20 0.21 0.22 0.24 0.27 0.31 0.36 0.42 0.40 0.38 0.41 0.50 0.53 0.53 0.52 0.50 0.58 0.58 0.58 0.63 0.68 0.76 0.81 0.89 0.95 0.95 0.97 1.03 1.01 0.95 0.93 0.95
0.11 0.12 0.14 0.13 0.15 0.16 0.16 0.15 0.16 0.17 0.18 0.18 0.17 0.18 0.19 0.21 0.24 0.27 0.31 0.33 0.39 0.39 0.37 0.37 0.39 0.47 0.50 0.49 0.49 0.49 0.51 0.53 0.56 0.61 0.64 0.75 0.82 0.86 0.90 0.92 0.86 0.85 0.90 0.90
0.09 0.10 0.10 0.10 0.12 0.13 0.13 0.13 0.13 0.14 0.15 0.15 0.16 0.16 0.16 0.17 0.19 0.23 0.25 0.29 0.32 0.35 0.37 0.35 0.36 0.38 0.42 0.43 0.44 0.46 0.46 0.45 0.48 0.50 0.53 0.58 0.65 0.68 0.70 0.77 0.83 0.81 0.84 0.84
0.08 0.11 0.11 0.10 0.12 0.13 0.12 0.12 0.13 0.12 0.12 0.12 0.13 0.14 0.15 0.15 0.16 0.17 0.20 0.23 0.25 0.28 0.31 0.32 0.33 0.32 0.35 0.40 0.42 0.40 0.40 0.42 0.43 0.45 0.47 0.49 0.53 0.58 0.64 0.68 0.68 0.69 0.79 0.82
0.12 0.14 0.14 0.14 0.14 0.14 0.14 0.14 0.14 0.14 0.13 0.13 0.13 0.14 0.14 0.14 0.15 0.15 0.16 0.17 0.20 0.23 0.25 0.29 0.30 0.30 0.31 0.33 0.36 0.38 0.38 0.38 0.40 0.43 0.42 0.43 0.45 0.45 0.45 0.55 0.60 0.61 0.63 0.65
0.15 0.15 0.13 0.14 0.15 0.17 0.17 0.18 0.18 0.17 0.17 0.17 0.15 0.15 0.16 0.15 0.15 0.14 0.14 0.15 0.16 0.18 0.21 0.23 0.27 0.28 0.30 0.31 0.31 0.33 0.35 0.36 0.36 0.37 0.38 0.40 0.39 0.41 0.42 0.41 0.42 0.46 0.53 0.53
0.14 0.15 0.15 0.16 0.17 0.17 0.19 0.19 0.18 0.17 0.18 0.19 0.20 0.18 0.17 0.15 0.16 0.15 0.16 0.16 0.16 0.15 0.16 0.19 0.20 0.22 0.27 0.29 0.29 0.29 0.31 0.32 0.34 0.35 0.36 0.36 0.37 0.39 0.39 0.39 0.41 0.44 0.45 0.45
0.15 0.15 0.16 0.16 0.17 0.17 0.17 0.18 0.18 0.18 0.19 0.20 0.21 0.21 0.21 0.19 0.19 0.18 0.17 0.17 0.16 0.14 0.14 0.15 0.17 0.20 0.22 0.25 0.26 0.28 0.29 0.30 0.30 0.31 0.33 0.34 0.34 0.35 0.36 0.37 0.38 0.39 0.40 0.41
0.14 0.14 0.15 0.15 0.16 0.16 0.17 0.18 0.18 0.18 0.20 0.21 0.21 0.24 0.22 0.22 0.21 0.20 0.20 0.20 0.18 0.16 0.16 0.15 0.15 0.17 0.20 0.21 0.23 0.24 0.26 0.28 0.30 0.30 0.30 0.31 0.32 0.34 0.34 0.33 0.33 0.35 0.35 0.37
0.16 0.16 0.17 0.17 0.16 0.17 0.17 0.16 0.17 0.19 0.21 0.23 0.26 0.24 0.23 0.22 0.21 0.21 0.22 0.21 0.20 0.19 0.19 0.18 0.18 0.18 0.18 0.19 0.20 0.22 0.23 0.25 0.27 0.29 0.30 0.30 0.30 0.32 0.33 0.34 0.33 0.32 0.32 0.34
0.16 0.16 0.17 0.17 0.17 0.16 0.15 0.15 0.18 0.21 0.23 0.24 0.23 0.24 0.25 0.24 0.24 0.24 0.24 0.23 0.22 0.20 0.20 0.21 0.20 0.18 0.17 0.17 0.18 0.20 0.20 0.21 0.23 0.25 0.28 0.29 0.29 0.29 0.30 0.30 0.31 0.32 0.32 0.31
0.15 0.16 0.16 0.17 0.17 0.14 0.14 0.17 0.21 0.22 0.24 0.24 0.25 0.24 0.24 0.24 0.25 0.25 0.25 0.23 0.24 0.23 0.24 0.22 0.21 0.21 0.21 0.20 0.18 0.18 0.18 0.18 0.19 0.21 0.23 0.25 0.28 0.28 0.27 0.27 0.28 0.30 0.31 0.31
0.15 0.16 0.16 0.16 0.13 0.14 0.17 0.20 0.22 0.23 0.24 0.25 0.25 0.24 0.24 0.25 0.26 0.26 0.24 0.22 0.24 0.26 0.25 0.25 0.22 0.21 0.21 0.22 0.21 0.18 0.16 0.16 0.17 0.18 0.19 0.19 0.21 0.24 0.26 0.26 0.26 0.26 0.28 0.30
0.16 0.16 0.15 0.13 0.13 0.15 0.19 0.22 0.23 0.24 0.24 0.25 0.25 0.26 0.25 0.25 0.26 0.26 0.27 0.25 0.27 0.27 0.27 0.27 0.23 0.22 0.22 0.23 0.24 0.22 0.19 0.17 0.16 0.17 0.17 0.18 0.19 0.21 0.22 0.23 0.24 0.26 0.26 0.28
0.15 0.14 0.12 0.12 0.14 0.18 0.22 0.23 0.24 0.24 0.24 0.24 0.25 0.25 0.25 0.26 0.26 0.24 0.22 0.27 0.28 0.29 0.29 0.28 0.25 0.23 0.25 0.26 0.26 0.25 0.24 0.21 0.18 0.16 0.17 0.18 0.19 0.22 0.25 0.25 0.25 0.26 0.26 0.28
0.12 0.11 0.13 0.15 0.18 0.21 0.21 0.23 0.24 0.24 0.24 0.24 0.25 0.26 0.26 0.25 0.26 0.29 0.29 0.29 0.29 0.30 0.30 0.29 0.26 0.25 0.25 0.27 0.27 0.27 0.26 0.23 0.20 0.17 0.17 0.18 0.21 0.24 0.25 0.25 0.26 0.29 0.29 0.29
0.12 0.13 0.15 0.17 0.21 0.22 0.23 0.23 0.23 0.23 0.23 0.24 0.25 0.25 0.26 0.27 0.26 0.28 0.30 0.30 0.31 0.31 0.30 0.31 0.28 0.25 0.26 0.27 0.27 0.26 0.25 0.23 0.21 0.19 0.19 0.20 0.20 0.20 0.19 0.20 0.20 0.21 0.22 0.22
0.13 0.15 0.17 0.22 0.23 0.23 0.24 0.24 0.22 0.23 0.23 0.22 0.23 0.24 0.25 0.26 0.27 0.27 0.28 0.29 0.29 0.31 0.32 0.32 0.31 0.28 0.26 0.27 0.27 0.27 0.26 0.24 0.22 0.21 0.20 0.22 0.22 0.21 0.21 0.21 0.21 0.20 0.20 0.21
0.16 0.18 0.22 0.23 0.23 0.24 0.24 0.24 0.23 0.22 0.23 0.22 0.21 0.23 0.24 0.25 0.25 0.26 0.26 0.26 0.26 0.27 0.29 0.31 0.32 0.31 0.29 0.27 0.27 0.28 0.27 0.27 0.27 0.26 0.25 0.25 0.25 0.25 0.25 0.24 0.24 0.24 0.24 0.23

GFSNGP_prec_pwat_327.txt.gz
Precipitable_Water
0.08 0.10 0.15 0.17 0.17 0.15 0.14 0.17 0.14 0.16 0.17 0.21 0.25 0.28 0.30 0.34 0.37 0.38 0.40 0.40 0.47 0.53 0.57 0.61 0.65 0.68 0.74 0.93 1.04 1.27 1.40 1.30 1.27 1.35 1.40 1.39 1.35 1.34 1.33 1.08 0.81 0.75 0.76 0.79
0.07 0.11 0.20 0.15 0.15 0.17 0.15 0.16 0.17 0.17 0.17 0.25 0.27 0.31 0.29 0.32 0.35 0.35 0.39 0.40 0.45 0.52 0.55 0.59 0.65 0.70 0.73 0.87 0.95 1.10 1.21 1.25 1.30 1.26 1.34 1.37 1.31 1.31 1.33 1.32 1.29 1.08 0.89 0.83
0.07 0.16 0.16 0.11 0.14 0.17 0.15 0.18 0.18 0.14 0.19 0.23 0.24 0.27 0.28 0.31 0.34 0.35 0.38 0.43 0.44 0.49 0.54 0.58 0.62 0.66 0.73 0.78 0.88 0.97 1.05 1.04 1.19 1.29 1.35 1.33 1.33 1.27 1.27 1.30 1.32 1.34 1.35 1.25
0.09 0.13 0.07 0.13 0.15 0.21 0.17 0.17 0.18 0.19 0.20 0.21 0.24 0.29 0.28 0.31 0.33 0.35 0.39 0.42 0.43 0.47 0.52 0.58 0.60 0.64 0.71 0.75 0.83 0.91 1.03 1.02 1.12 1.34 1.43 1.32 1.27 1.26 1.25 1.27 1.31 1.29 1.30 1.43
0.11 0.10 0.12 0.12 0.12 0.14 0.14 0.15 0.16 0.17 0.19 0.20 0.22 0.23 0.23 0.27 0.29 0.33 0.37 0.41 0.47 0.51 0.52 0.54 0.61 0.62 0.62 0.70 0.75 0.80 0.82 1.01 1.08 1.09 1.19 1.26 1.20 1.17 1.21 1.23 1.24 1.26 1.33 1.32
0.11 0.07 0.07 0.11 0.13 0.14 0.15 0.12 0.16 0.17 0.17 0.17 0.19 0.16 0.19 0.24 0.26 0.28 0.33 0.37 0.42 0.49 0.51 0.52 0.55 0.61 0.62 0.61 0.64 0.69 0.75 0.79 0.92 0.98 1.04 1.09 1.12 1.15 1.16 1.20 1.19 1.24 1.28 1.36
0.08 0.09 0.11 0.11 0.12 0.14 0.09 0.11 0.15 0.15 0.16 0.16 0.15 0.18 0.20 0.20 0.21 0.25 0.26 0.30 0.36 0.41 0.46 0.48 0.54 0.58 0.60 0.59 0.62 0.64 0.72 0.74 0.80 0.89 0.94 1.00 1.06 1.11 1.13 1.14 1.15 1.17 1.22 1.28
0.09 0.07 0.07 0.12 0.11 0.10 0.13 0.15 0.14 0.14 0.15 0.15 0.16 0.17 0.18 0.18 0.18 0.19 0.22 0.24 0.28 0.34 0.39 0.43 0.44 0.47 0.52 0.55 0.64 0.64 0.68 0.72 0.70 0.82 0.82 0.94 0.95 1.01 1.03 1.05 1.05 1.10 1.13 1.15
0.09 0.08 0.11 0.13 0.11 0.12 0.13 0.13 0.14 0.15 0.16 0.16 0.16 0.16 0.17 0.18 0.18 0.18 0.19 0.21 0.23 0.27 0.33 0.38 0.42 0.45 0.45 0.54 0.57 0.64 0.65 0.68 0.71 0.71 0.80 0.81 0.89 0.91 0.94 1.00 1.01 1.04 1.04 1.05
0.10 0.11 0.11 0.12 0.14 0.15 0.15 0.15 0.15 0.16 0.17 0.18 0.17 0.17 0.17 0.18 0.19 0.19 0.19 0.19 0.21 0.21 0.24 0.29 0.35 0.41 0.40 0.44 0.51 0.56 0.59 0.59 0.68 0.74 0.71 0.77 0.83 0.85 0.85 0.91 0.93 0.92 0.94 0.96
0.11 0.12 0.13 0.14 0.15 0.15 0.16 0.16 0.16 0.18 0.18 0.18 0.17 0.17 0.18 0.18 0.19 0.20 0.21 0.21 0.20 0.20 0.21 0.23 0.27 0.31 0.39 0.40 0.45 0.49 0.53 0.57 0.59 0.60 0.67 0.72 0.73 0.81 0.81 0.86 0.91 0.85 0.89 0.94
0.10 0.13 0.14 0.15 0.16 0.17 0.16 0.16 0.17 0.17 0.18 0.18 0.18 0.18 0.18 0.18 0.19 0.20 0.22 0.22 0.21 0.20 0.21 0.21 0.23 0.25 0.30 0.38 0.39 0.40 0.43 0.46 0.52 0.54 0.56 0.64 0.68 0.72 0.79 0.80 0.82 0.84 0.88 0.94
0.13 0.16 0.15 0.16 0.17 0.17 0.16 0.17 0.17 0.18 0.18 0.18 0.18 0.18 0.17 0.18 0.20 0.21 0.22 0.22 0.23 0.22 0.22 0.22 0.21 0.22 0.25 0.29 0.33 0.34 0.36 0.42 0.45 0.50 0.51 0.52 0.55 0.59 0.65 0.71 0.70 0.76 0.78 0.80
0.15 0.15 0.14 0.15 0.15 0.17 0.17 0.18 0.18 0.18 0.18 0.18 0.17 0.18 0.19 0.20 0.21 0.22 0.22 0.23 0.22 0.22 0.22 0.23 0.23 0.22 0.24 0.25 0.25 0.30 0.33 0.35 0.41 0.43 0.47 0.51 0.48 0.51 0.56 0.59 0.62 0.64 0.69 0.70
0.14 0.15 0.15 0.16 0.16 0.16 0.17 0.18 0.17 0.16 0.17 0.16 0.16 0.17 0.20 0.22 0.23 0.23 0.25 0.24 0.23 0.23 0.22 0.23 0.24 0.23 0.25 0.25 0.24 0.24 0.27 0.32 0.34 0.36 0.39 0.42 0.44 0.48 0.50 0.50 0.57 0.54 0.57 0.60
0.15 0.16 0.16 0.15 0.15 0.16 0.16 0.16 0.16 0.16 0.16 0.15 0.15 0.17 0.20 0.22 0.23 0.24 0.25 0.25 0.25 0.24 0.24 0.23 0.23 0.24 0.25 0.24 0.23 0.23 0.23 0.25 0.28 0.31 0.33 0.36 0.40 0.43 0.45 0.48 0.49 0.50 0.51 0.53
0.15 0.14 0.15 0.15 0.17 0.16 0.16 0.16 0.17 0.16 0.15 0.15 0.16 0.19 0.21 0.22 0.23 0.23 0.24 0.25 0.25 0.25 0.26 0.25 0.24 0.26 0.26 0.26 0.24 0.23 0.24 0.24 0.24 0.23 0.28 0.33 0.38 0.39 0.40 0.44 0.46 0.47 0.50 0.52
0.16 0.16 0.17 0.17 0.16 0.16 0.16 0.16 0.16 0.15 0.14 0.16 0.18 0.21 0.22 0.22 0.21 0.22 0.24 0.25 0.26 0.26 0.26 0.26 0.27 0.27 0.27 0.27 0.26 0.25 0.24 0.23 0.23 0.22 0.22 0.25 0.29 0.32 0.38 0.40 0.41 0.43 0.45 0.49
0.18 0.18 0.18 0.17 0.17 0.16 0.15 0.15 0.14 0.15 0.17 0.19 0.21 0.23 0.23 0.23 0.24 0.23 0.23 0.23 0.24 0.24 0.26 0.28 0.28 0.27 0.26 0.27 0.27 0.26 0.25 0.24 0.24 0.22 0.22 0.22 0.22 0.26 0.30 0.33 0.36 0.39 0.41 0.43
0.17 0.17 0.17 0.16 0.16 0.15 0.14 0.15 0.16 0.18 0.20 0.23 0.24 0.24 0.24 0.23 0.23 0.23 0.24 0.23 0.25 0.27 0.29 0.29 0.29 0.28 0.28 0.28 0.27 0.27 0.27 0.26 0.25 0.25 0.25 0.25 0.24 0.24 0.24 0.28 0.31 0.34 0.37 0.38
0.15 0.15 0.14 0.15 0.14 0.15 0.17 0.19 0.20 0.22 0.24 0.24 0.24 0.24 0.22 0.23 0.24 0.26 0.24 0.23 0.26 0.30 0.32 0.30 0.29 0.29 0.29 0.29 0.30 0.29 0.28 0.26 0.25 0.24 0.23 0.24 0.25 0.26 0.25 0.23 0.23 0.27 0.32 0.33
0.14 0.14 0.13 0.14 0.16 0.18 0.20 0.22 0.23 0.24 0.24 0.24 0.25 0.24 0.24 0.24 0.24 0.24 0.25 0.25 0.28 0.29 0.29 0.30 0.29 0.30 0.30 0.30 0.28 0.27 0.28 0.27 0.25 0.24 0.22 0.23 0.22 0.22 0.24 0.26 0.26 0.25 0.25 0.26
0.13 0.13 0.14 0.17 0.19 0.20 0.22 0.23 0.24 0.24 0.24 0.25 0.24 0.25 0.24 0.23 0.24 0.22 0.22 0.26 0.26 0.26 0.26 0.27 0.28 0.30 0.31 0.30 0.29 0.29 0.28 0.26 0.24 0.23 0.24 0.24 0.24 0.24 0.23 0.24 0.27 0.29 0.28 0.26
0.13 0.15 0.18 0.21 0.21 0.21 0.21 0.22 0.23 0.23 0.24 0.25 0.23 0.24 0.23 0.22 0.23 0.24 0.25 0.26 0.26 0.26 0.26 0.28 0.28 0.29 0.30 0.31 0.30 0.29 0.29 0.27 0.26 0.26 0.26 0.25 0.25 0.26 0.26 0.26 0.28 0.31 0.30 0.31
0.14 0.18 0.20 0.21 0.21 0.20 0.21 0.22 0.22 0.22 0.22 0.22 0.22 0.22 0.23 0.24 0.23 0.24 0.24 0.25 0.25 0.25 0.26 0.28 0.30 0.31 0.32 0.32 0.33 0.31 0.30 0.28 0.29 0.30 0.29 0.28 0.28 0.28 0.28 0.28 0.30 0.32 0.32 0.30
0.16 0.20 0.21 0.21 0.20 0.21 0.21 0.21 0.19 0.20 0.20 0.20 0.20 0.22 0.23 0.23 0.23 0.23 0.24 0.24 0.25 0.25 0.25 0.26 0.27 0.27 0.29 0.29 0.30 0.30 0.30 0.29 0.29 0.29 0.29 0.30 0.30 0.29 0.29 0.29 0.30 0.31 0.31 0.31
0.20 0.22 0.21 0.20 0.20 0.20 0.19 0.19 0.18 0.17 0.18 0.17 0.17 0.19 0.19 0.20 0.20 0.20 0.21 0.22 0.22 0.23 0.24 0.24 0.25 0.25 0.25 0.26 0.26 0.26 0.26 0.26 0.26 0.26 0.26 0.26 0.27 0.26 0.26 0.26 0.26 0.27 0.28 0.28

GFSNGP_prec_pwat_330.txt.gz
Precipitable_Water
0.09 0.09 0.15 0.19 0.16 0.14 0.12 0.14 0.13 0.15 0.15 0.18 0.23 0.25 0.27 0.30 0.32 0.32 0.35 0.37 0.39 0.42 0.44 0.47 0.48 0.52 0.62 0.71 0.82 0.98 0.98 1.39 1.19 1.17 1.39 1.47 1.46 1.41 1.38 1.16 1.03 0.96 0.83 0.86
0.10 0.17 0.15 0.14 0.18 0.15 0.14 0.14 0.14 0.15 0.16 0.20 0.24 0.27 0.25 0.27 0.30 0.31 0.33 0.36 0.39 0.42 0.46 0.45 0.48 0.53 0.58 0.65 0.76 0.92 0.90 1.13 1.31 1.15 1.36 1.49 1.46 1.42 1.37 1.28 1.17 1.11 0.94 0.79
0.09 0.17 0.14 0.10 0.15 0.16 0.18 0.15 0.15 0.12 0.16 0.19 0.19 0.23 0.23 0.24 0.26 0.28 0.31 0.35 0.38 0.41 0.46 0.50 0.52 0.55 0.58 0.61 0.64 0.73 0.84 1.05 1.19 1.26 1.31 1.59 1.45 1.44 1.33 1.30 1.30 1.22 1.10 0.84
0.10 0.14 0.07 0.12 0.13 0.15 0.18 0.15 0.16 0.16 0.17 0.18 0.16 0.21 0.22 0.23 0.24 0.25 0.29 0.31 0.36 0.40 0.43 0.48 0.52 0.58 0.58 0.64 0.66 0.66 0.72 0.94 1.07 1.12 1.14 1.33 1.39 1.33 1.38 1.33 1.29 1.27 1.23 1.19
0.09 0.09 0.12 0.10 0.10 0.11 0.15 0.14 0.14 0.14 0.15 0.17 0.17 0.17 0.17 0.22 0.22 0.23 0.24 0.28 0.31 0.36 0.43 0.48 0.50 0.54 0.56 0.60 0.64 0.66 0.73 0.80 0.91 1.06 1.06 1.22 1.33 1.35 1.36 1.38 1.31 1.34 1.32 1.27
0.10 0.08 0.07 0.09 0.11 0.12 0.15 0.13 0.14 0.14 0.14 0.15 0.15 0.12 0.15 0.20 0.21 0.21 0.22 0.24 0.27 0.30 0.35 0.43 0.48 0.51 0.52 0.52 0.63 0.66 0.70 0.77 0.84 0.97 1.00 1.01 1.15 1.28 1.38 1.42 1.36 1.38 1.37 1.38
0.08 0.09 0.12 0.12 0.12 0.12 0.08 0.10 0.15 0.15 0.16 0.16 0.16 0.18 0.20 0.20 0.20 0.20 0.21 0.21 0.24 0.26 0.29 0.34 0.45 0.48 0.47 0.56 0.54 0.67 0.72 0.73 0.82 0.83 0.92 0.94 0.97 1.01 1.13 1.34 1.42 1.40 1.34 1.37
0.09 0.08 0.08 0.12 0.12 0.11 0.14 0.15 0.15 0.14 0.16 0.16 0.17 0.18 0.19 0.19 0.20 0.20 0.20 0.21 0.22 0.23 0.25 0.30 0.34 0.41 0.43 0.46 0.55 0.67 0.60 0.66 0.71 0.75 0.84 0.89 1.01 1.07 1.16 1.17 1.21 1.23 1.24 1.23
0.12 0.10 0.13 0.13 0.13 0.17 0.17 0.15 0.16 0.16 0.17 0.18 0.17 0.17 0.18 0.19 0.19 0.20 0.21 0.22 0.22 0.23 0.23 0.26 0.28 0.33 0.37 0.41 0.50 0.57 0.62 0.67 0.64 0.69 0.80 0.80 0.87 0.90 0.95 1.02 1.05 1.09 1.12 1.12
0.11 0.13 0.13 0.14 0.17 0.18 0.17 0.17 0.18 0.19 0.18 0.18 0.18 0.18 0.18 0.18 0.18 0.19 0.20 0.21 0.25 0.23 0.23 0.23 0.27 0.27 0.29 0.37 0.45 0.47 0.51 0.55 0.59 0.67 0.64 0.70 0.76 0.84 0.85 0.90 0.92 0.95 0.96 0.97
0.12 0.15 0.15 0.15 0.16 0.16 0.18 0.18 0.18 0.18 0.19 0.19 0.18 0.19 0.18 0.16 0.17 0.18 0.21 0.22 0.23 0.24 0.25 0.24 0.25 0.26 0.28 0.29 0.34 0.41 0.43 0.50 0.60 0.59 0.64 0.66 0.69 0.75 0.76 0.82 0.83 0.82 0.85 0.90
0.12 0.14 0.13 0.14 0.16 0.18 0.17 0.17 0.18 0.18 0.18 0.19 0.19 0.19 0.17 0.17 0.18 0.21 0.21 0.23 0.24 0.25 0.26 0.26 0.25 0.24 0.26 0.29 0.29 0.33 0.39 0.46 0.51 0.53 0.57 0.60 0.61 0.68 0.74 0.73 0.81 0.80 0.84 0.87
0.15 0.16 0.15 0.16 0.17 0.18 0.17 0.17 0.18 0.19 0.19 0.18 0.19 0.18 0.17 0.18 0.20 0.22 0.24 0.23 0.24 0.25 0.25 0.26 0.27 0.26 0.26 0.29 0.29 0.28 0.33 0.37 0.42 0.47 0.53 0.55 0.59 0.59 0.58 0.68 0.67 0.71 0.77 0.80
0.16 0.16 0.15 0.16 0.15 0.16 0.17 0.17 0.18 0.18 0.19 0.19 0.19 0.18 0.17 0.19 0.21 0.23 0.23 0.25 0.26 0.26 0.26 0.27 0.28 0.28 0.29 0.28 0.27 0.27 0.28 0.33 0.37 0.38 0.42 0.49 0.53 0.57 0.58 0.57 0.61 0.62 0.71 0.71
0.15 0.16 0.17 0.17 0.17 0.17 0.17 0.17 0.17 0.17 0.18 0.18 0.18 0.17 0.18 0.19 0.21 0.23 0.25 0.26 0.26 0.26 0.26 0.26 0.26 0.28 0.30 0.30 0.30 0.26 0.26 0.26 0.30 0.34 0.36 0.41 0.46 0.53 0.56 0.58 0.56 0.58 0.63 0.61
0.14 0.18 0.18 0.17 0.16 0.17 0.18 0.17 0.16 0.16 0.16 0.17 0.16 0.17 0.18 0.22 0.24 0.24 0.24 0.25 0.24 0.23 0.25 0.27 0.27 0.28 0.29 0.30 0.30 0.29 0.27 0.26 0.27 0.28 0.30 0.32 0.38 0.45 0.49 0.56 0.57 0.56 0.54 0.55
0.14 0.13 0.14 0.15 0.17 0.16 0.16 0.16 0.16 0.15 0.15 0.15 0.17 0.19 0.22 0.24 0.23 0.24 0.25 0.25 0.25 0.25 0.25 0.25 0.25 0.29 0.31 0.30 0.28 0.27 0.27 0.27 0.26 0.26 0.26 0.28 0.31 0.34 0.39 0.44 0.48 0.54 0.56 0.58
0.17 0.17 0.18 0.17 0.15 0.16 0.16 0.16 0.15 0.14 0.15 0.17 0.20 0.22 0.24 0.23 0.24 0.23 0.22 0.23 0.24 0.25 0.27 0.28 0.29 0.28 0.27 0.28 0.28 0.29 0.28 0.27 0.27 0.26 0.25 0.25 0.27 0.29 0.31 0.35 0.40 0.44 0.49 0.56
0.17 0.16 0.16 0.16 0.16 0.16 0.16 0.15 0.16 0.19 0.20 0.22 0.23 0.24 0.25 0.26 0.23 0.23 0.24 0.24 0.24 0.24 0.27 0.32 0.33 0.30 0.28 0.27 0.28 0.28 0.26 0.26 0.27 0.27 0.27 0.27 0.26 0.27 0.27 0.26 0.30 0.35 0.40 0.44
0.16 0.16 0.16 0.16 0.17 0.16 0.17 0.19 0.20 0.21 0.23 0.23 0.24 0.25 0.23 0.22 0.23 0.25 0.26 0.25 0.27 0.28 0.32 0.29 0.30 0.33 0.31 0.32 0.32 0.28 0.27 0.27 0.26 0.26 0.27 0.26 0.25 0.25 0.26 0.26 0.26 0.25 0.29 0.34
0.14 0.15 0.15 0.15 0.16 0.18 0.20 0.21 0.21 0.21 0.23 0.24 0.23 0.22 0.23 0.25 0.26 0.24 0.23 0.23 0.27 0.29 0.28 0.27 0.27 0.30 0.30 0.31 0.30 0.30 0.28 0.27 0.27 0.27 0.26 0.26 0.26 0.25 0.24 0.24 0.24 0.25 0.26 0.26
0.14 0.14 0.15 0.16 0.19 0.20 0.21 0.21 0.22 0.22 0.22 0.22 0.24 0.25 0.23 0.22 0.22 0.23 0.24 0.24 0.25 0.26 0.25 0.25 0.26 0.27 0.27 0.27 0.28 0.29 0.29 0.28 0.27 0.27 0.26 0.26 0.26 0.25 0.24 0.24 0.23 0.23 0.23 0.25
0.14 0.14 0.16 0.19 0.20 0.20 0.20 0.21 0.21 0.21 0.21 0.21 0.21 0.21 0.21 0.21 0.22 0.21 0.20 0.24 0.25 0.24 0.24 0.26 0.27 0.27 0.29 0.29 0.29 0.30 0.31 0.29 0.29 0.28 0.28 0.27 0.27 0.27 0.27 0.25 0.25 0.25 0.25 0.25
0.14 0.15 0.18 0.21 0.20 0.19 0.18 0.19 0.20 0.20 0.20 0.20 0.20 0.21 0.20 0.20 0.21 0.22 0.24 0.24 0.24 0.24 0.25 0.26 0.25 0.27 0.28 0.29 0.30 0.31 0.33 0.32 0.32 0.32 0.32 0.32 0.32 0.31 0.31 0.30 0.29 0.29 0.29 0.29
0.13 0.17 0.21 0.19 0.18 0.18 0.18 0.19 0.18 0.18 0.18 0.18 0.18 0.19 0.20 0.20 0.19 0.20 0.20 0.21 0.22 0.22 0.23 0.24 0.24 0.25 0.26 0.27 0.27 0.27 0.28 0.28 0.28 0.29 0.29 0.28 0.28 0.28 0.29 0.30 0.30 0.31 0.32 0.32
0.14 0.20 0.20 0.18 0.18 0.18 0.18 0.17 0.16 0.16 0.15 0.14 0.15 0.15 0.16 0.16 0.16 0.16 0.16 0.17 0.17 0.18 0.19 0.21 0.22 0.23 0.24 0.24 0.24 0.25 0.25 0.25 0.25 0.25 0.25 0.25 0.25 0.25 0.25 0.26 0.26 0.27 0.27 0.27
0.18 0.22 0.19 0.18 0.19 0.17 0.17 0.15 0.15 0.13 0.13 0.13 0.12 0.13 0.13 0.13 0.12 0.12 0.12 0.12 0.12 0.12 0.12 0.13 0.14 0.15 0.17 0.18 0.19 0.20 0.21 0.21 0.21 0.22 0.23 0.23 0.23 0.23 0.23 0.23 0.23 0.24 0.23 0.24